This demonstration page uses our WeatherBlox Daily Observations layout. Learn more.

41.55636, -103.73856

Hourly Observations for December 29, 2015

Temp ( °F °C ) Dew Point ( °F °C ) Humidity (%) Winds ( mph kmh ) Pressure ( in mb ) Visibility ( mi km ) Precip ( " mm )
12:53 am 00:53 Clear 0 -17.8 -4 -20 83 83 NNW 12 19 30.05 1018 10 16.0934 0 0
1:53 am 01:53 Clear 2 -16.7 -2 -18.9 83 83 NW 12 19 30.06 1018 9 14.48406 0 0
2:53 am 02:53 Clear 2 -16.7 -3 -19.4 80 80 NW 13 20 30.08 1019 9 14.48406 0 0
3:53 am 03:53 Clear 0 -17.8 -5 -20.6 79 79 NNW 7 11 30.1 1019 10 16.0934 0 0
4:53 am 04:53 Clear 0 -17.8 -5 -20.6 79 79 N 7 11 30.13 1020 10 16.0934 0 0
5:53 am 05:53 Clear -2 -18.9 -7 -21.7 79 79 NW 9 15 30.17 1022 10 16.0934 0 0
6:53 am 06:53 Clear 0 -17.8 -5 -20.6 79 79 WNW 9 15 30.19 1022 9 14.48406 0 0
7:53 am 07:53 Sunny 2 -16.7 -4 -20 76 76 NW 9 15 30.21 1023 8 12.87472 0 0
8:53 am 08:53 Sunny 5 -15 0 -17.8 79 79 NNW 3 6 30.22 1023 9 14.48406 0 0
9:53 am 09:53 Sunny 6 -14.4 2 -16.7 83 83 Calm 30.24 1024 8 12.87472 0 0
10:53 am 10:53 Mostly Sunny 11 -11.7 5 -15 77 77 WNW 9 15 30.21 1023 10 16.0934 0 0
11:53 am 11:53 Sunny 16 -8.9 7 -13.9 67 67 WNW 7 11 30.18 1022 10 16.0934 0 0
12:53 pm 12:53 Mostly Sunny 17 -8.3 8 -13.3 68 68 WSW 6 9 30.16 1021 10 16.0934 0 0
1:53 pm 13:53 Partly Cloudy 17 -8.3 9 -12.8 70 70 Calm 30.15 1021 10 16.0934 0 0
2:53 pm 14:53 Cloudy 18 -7.8 9 -12.8 68 68 SSE 5 7 30.16 1022 10 16.0934 0 0
3:53 pm 15:53 Cloudy 17 -8.3 9 -12.8 70 70 SSE 3 6 30.18 1022 10 16.0934 0 0
4:53 pm 16:53 Cloudy 12 -11.1 6 -14.4 77 77 ESE 5 7 30.23 1024 10 16.0934 0 0
5:53 pm 17:53 Cloudy 12 -11.1 6 -14.4 77 77 E 6 9 30.24 1024 10 16.0934 0 0
6:53 pm 18:53 Cloudy 11 -11.7 6 -14.4 81 81 E 7 11 30.24 1024 10 16.0934 0 0
7:53 pm 19:53 Mostly Cloudy 10 -12.2 5 -15 80 80 Calm 30.25 1025 10 16.0934 0 0
8:53 pm 20:53 Cloudy 9 -12.8 4 -15.6 80 80 E 3 6 30.25 1025 10 16.0934 0 0
9:53 pm 21:53 Mostly Clear 6 -14.4 2 -16.7 83 83 Calm 30.27 1025 10 16.0934 0 0
10:53 pm 22:53 Clear 2 -16.7 -1 -18.3 88 88 N 5 7 30.28 1025 10 16.0934 0 0
11:53 pm 23:53 Cloudy 3 -16.1 -2 -18.9 79 79 N 3 6 30.25 1024 10 16.0934 0 0

Powered by AerisWeather